RH
84 72 56 47 42 54 60 65 57 58 59 56 54 58 66 79 72 87 84 78 76 74 72 70 67 67 66 66 66 66 65 64 62 61 60 59 59 58 60 61 61 61 60 60 60 60 60 59 58
65 54 43 42 46 58 53 57 57 54 52 53 52 56 64 80 74 88 88 77 70 71 74 72 66 63 63 64 65 64 63 60 60 57 55 55 55 55 56 56 57 57 58 57 58 57 56 55 55
46 38 38 47 59 60 57 56 56 53 50 52 60 56 61 78 85 83 79 70 69 75 74 66 64 62 62 63 63 61 59 58 56 53 53 54 53 52 54 54 54 54 56 56 56 55 56 57 55
38 40 37 51 64 51 51 56 52 54 49 54 59 69 60 57 73 78 70 69 74 79 77 67 65 62 62 61 60 59 58 56 54 54 53 54 53 52 52 53 53 54 55 57 56 55 56 54 53
43 44 48 64 58 56 57 50 50 50 50 52 57 74 65 59 74 73 72 69 76 82 79 73 65 61 60 59 58 57 59 55 56 55 55 55 54 52 53 53 54 56 57 57 55 56 54 53 52
41 42 52 58 51 49 51 46 44 47 51 55 59 63 65 75 77 75 72 76 76 82 82 75 64 60 58 56 53 54 58 54 56 56 57 56 55 54 54 54 55 56 56 55 54 56 54 53 52
39 44 56 47 35 58 48 45 47 50 53 54 52 69 66 64 75 73 76 79 83 84 87 87 79 64 57 55 49 55 55 54 54 56 56 55 57 56 55 54 56 55 56 55 55 55 54 54 52
36 38 51 36 56 56 47 42 43 47 58 49 50 68 74 60 65 74 79 88 91 92 92 93 89 80 73 68 52 57 55 54 53 54 55 58 64 59 59 57 55 55 56 56 55 54 54 54 54
32 36 41 33 34 49 43 40 35 42 54 50 50 56 54 56 62 71 78 82 88 85 95 93 91 86 78 65 56 60 55 56 58 59 55 67 71 72 70 56 54 55 55 56 55 54 54 53 56
21 28 24 19 30 46 40 40 40 49 55 56 58 53 54 55 60 64 67 71 67 75 85 83 71 72 74 41 61 66 56 67 67 66 66 69 72 67 62 58 56 58 56 58 56 57 57 56 54
23 21 20 33 40 38 43 43 40 50 58 51 59 61 56 55 54 55 58 59 60 65 64 67 65 60 56 57 61 68 72 74 72 67 67 70 69 76 77 75 71 70 63 67 63 65 60 60 58
20 19 27 40 38 37 42 40 40 44 41 41 52 52 52 52 52 51 56 59 62 67 68 66 64 62 63 62 62 66 68 70 74 70 67 72 76 76 80 78 74 70 75 75 74 74 64 62 57
22 29 33 39 35 38 34 38 39 44 50 49 48 49 51 49 47 46 47 52 60 66 66 66 64 64 62 57 61 66 72 70 71 72 68 72 74 77 80 78 76 73 76 79 74 72 66 64 60
25 30 35 35 34 35 34 40 39 56 49 50 50 51 49 47 45 42 46 54 57 61 64 65 64 63 63 59 57 65 70 72 70 73 70 68 75 77 78 78 76 76 79 80 79 75 76 68 61
28 32 31 35 36 35 30 41 36 50 47 51 50 49 47 44 40 40 45 52 56 57 58 62 65 63 60 60 60 65 69 68 69 70 68 68 73 74 76 79 78 80 81 81 77 72 72 66 62
27 32 41 34 32 32 30 38 34 51 50 54 52 48 44 42 38 39 45 51 56 60 61 59 49 58 62 64 66 62 66 73 71 71 70 63 69 68 72 76 79 80 81 84 82 77 67 66 67
30 32 34 31 32 36 33 35 36 50 48 52 49 47 44 40 42 46 48 52 57 60 58 60 61 61 61 60 68 69 64 69 70 72 67 60 66 66 72 76 79 78 82 87 83 81 85 70 69
31 34 44 32 29 38 41 35 57 51 49 50 49 46 47 43 46 48 49 49 52 56 58 54 57 56 54 57 57 61 66 70 68 69 66 62 70 68 72 78 80 78 83 87 85 86 82 84 82
28 29 29 28 23 36 36 32 47 53 50 56 51 46 52 46 46 48 49 52 56 60 53 53 53 57 56 58 57 57 65 60 65 66 65 67 68 68 75 81 79 77 84 90 81 84 86 88 86
30 31 30 26 22 34 45 39 49 50 47 46 46 46 50 50 53 53 55 55 57 62 55 54 54 55 57 60 63 59 59 59 62 65 69 74 74 77 71 82 78 78 86 88 87 90 92 89 94
27 29 27 25 36 40 41 38 40 41 42 45 43 43 46 52 56 55 55 62 64 56 56 54 56 56 57 57 58 59 59 62 65 66 70 75 74 75 74 76 80 84 91 93 92 93 94 99 94
26 20 22 28 41 42 36 49 31 31 38 42 45 51 50 52 53 53 57 64 61 61 59 57 55 54 53 57 61 62 67 68 66 70 70 78 73 73 73 75 81 91 92 91 92 85 95 97 99
22 26 28 29 36 39 33 36 30 25 26 40 43 50 51 54 54 56 58 61 57 58 62 61 56 54 56 59 60 69 70 67 67 69 71 72 76 72 72 78 88 92 93 90 92 94 97 98 98
25 26 28 36 35 38 30 34 33 32 32 38 42 54 52 55 57 58 58 53 60 65 65 63 58 58 58 58 61 62 61 60 65 69 71 74 77 79 77 76 90 90 88 92 92 90 93 97 98
26 27 37 32 38 36 31 31 27 32 52 50 58 56 57 59 63 62 60 58 60 66 66 62 59 63 61 62 58 56 57 62 62 67 70 72 77 78 80 85 87 88 88 91 86 87 92 97 99
25 25 40 40 46 37 29 31 25 61 60 56 54 58 61 70 62 62 58 58 60 62 63 60 60 62 59 58 54 56 57 65 65 67 68 70 75 78 80 85 83 81 86 89 85 90 96 96 98
29 30 30 37 49 47 38 29 33 60 65 64 65 67 75 68 66 63 60 62 60 65 63 57 60 56 55 55 56 57 60 60 64 64 67 69 71 66 76 83 79 82 87 85 85 96 95 97 98
20 21 28 39 35 41 39 34 33 41 73 69 74 78 72 68 66 64 61 64 62 58 59 63 58 52 55 57 54 56 59 60 62 63 62 64 68 71 77 80 80 84 88 84 88 94 94 96 97
25 28 33 32 46 41 49 39 48 49 63 74 76 70 70 68 67 62 64 57 54 64 64 60 53 57 58 56 58 60 62 60 63 63 64 66 68 71 75 78 80 85 87 83 90 94 87 90 94
24 31 34 42 36 49 53 46 60 62 66 68 68 64 68 66 66 60 54 56 62 67 61 54 57 56 60 61 60 61 60 60 61 63 64 67 67 70 76 79 82 87 83 88 94 95 90 88 92
Wind_Speed
7 9 3 1 4 5 4 1 2 4 1 2 3 2 5 4 1 4 5 11 14 9 7 8 12 12 13 14 15 15 15 15 15 14 13 14 13 14 15 16 16 16 16 16 16 17 18 19 18
6 3 1 2 5 3 7 2 4 5 6 8 7 2 5 3 4 10 9 10 12 11 7 6 13 13 13 14 15 14 14 14 13 12 11 12 13 13 14 15 14 14 15 15 16 17 17 18 18
7 3 4 4 3 4 4 4 4 4 7 1 5 6 3 4 6 10 11 13 12 9 6 9 13 13 14 14 14 14 13 14 13 11 12 13 14 14 14 15 15 15 16 16 17 17 18 19 19
3 4 4 4 3 5 3 5 7 9 4 5 6 6 3 2 11 9 15 13 11 7 6 12 13 13 15 14 13 13 14 15 13 13 14 14 14 14 14 15 16 16 17 17 18 18 19 19 18
3 3 3 3 4 5 1 5 10 8 5 2 2 4 3 4 14 18 15 12 12 7 5 7 13 13 14 13 13 12 14 15 14 15 15 15 15 15 16 16 16 18 18 18 18 18 18 18 18
4 4 4 2 5 4 3 7 7 4 4 5 6 6 3 11 15 12 12 10 8 8 6 6 12 12 13 13 10 12 13 15 16 15 16 16 16 16 16 16 17 18 17 18 18 19 18 19 18
5 5 3 4 4 3 6 9 7 6 7 4 10 6 3 4 10 13 11 9 7 6 6 5 5 8 11 10 8 13 13 15 16 15 15 15 15 16 16 16 18 17 17 18 18 19 19 19 18
6 5 0 4 4 5 3 3 6 6 3 4 5 7 7 8 12 11 10 7 7 6 6 5 4 5 4 4 8 13 13 15 16 15 15 15 15 17 16 17 17 16 18 18 19 19 19 20 18
3 5 3 6 6 6 6 6 3 4 8 2 0 7 6 21 15 12 8 5 5 5 5 5 4 4 3 4 8 11 13 14 15 13 15 10 5 6 10 17 18 17 18 18 19 19 19 20 17
5 4 10 9 5 7 9 8 9 6 4 1 3 7 19 20 17 16 13 9 5 6 5 4 3 5 5 6 6 6 7 4 5 5 6 5 6 7 9 13 18 18 19 17 19 19 19 16 6
5 7 7 6 7 8 9 6 3 11 4 9 11 17 20 19 14 15 11 12 10 7 5 6 5 7 7 5 4 3 3 3 3 6 5 6 5 4 4 4 4 4 12 5 8 7 6 8 7
3 9 8 5 6 8 10 9 7 9 6 7 15 24 22 19 17 15 13 10 11 7 7 7 7 7 6 4 4 4 4 3 3 4 6 4 3 4 4 3 5 4 3 5 5 4 7 8 9
6 4 3 3 8 4 9 6 5 5 4 12 18 19 20 17 14 10 11 11 10 8 6 7 7 6 6 6 4 4 4 4 4 3 4 4 4 4 3 4 4 4 4 4 5 5 7 8 10
4 2 3 4 5 6 6 1 2 2 9 13 19 19 17 17 15 11 14 14 10 9 8 6 7 6 6 5 5 4 4 4 3 3 2 3 3 3 4 4 4 5 4 4 4 6 5 6 8
4 4 4 1 5 6 7 3 11 7 11 15 16 16 15 14 14 16 16 16 14 10 9 7 7 6 7 5 5 4 4 4 3 3 2 3 4 5 4 4 4 4 4 5 5 6 5 6 8
3 5 1 3 6 3 7 11 7 13 16 14 13 14 14 9 14 14 14 14 10 10 9 7 6 7 6 4 4 4 4 4 3 2 0 3 4 4 4 3 3 4 4 4 4 6 7 7 7
6 4 5 6 9 3 6 10 4 10 13 14 14 14 12 11 9 12 12 13 11 8 8 7 6 7 7 6 5 4 5 4 2 1 1 2 4 5 4 4 4 5 4 4 4 3 3 7 8
8 4 4 6 5 6 6 15 3 11 13 15 14 12 9 12 13 13 13 12 10 8 7 7 6 7 7 5 4 4 4 3 1 0 2 4 4 5 4 4 4 4 4 4 3 3 3 3 6
2 3 6 6 6 6 14 19 10 12 10 10 13 12 9 12 11 13 12 11 10 7 8 6 8 5 4 4 3 3 3 2 3 3 5 4 4 4 5 4 4 4 4 3 5 3 4 3 7
3 4 10 10 7 9 3 12 5 12 16 21 17 15 15 13 15 15 13 11 7 7 8 7 8 7 5 3 2 2 3 4 3 3 5 6 6 6 5 5 5 5 3 4 5 4 3 3 4
6 5 8 11 3 2 2 8 4 10 14 7 11 11 15 18 19 17 15 10 9 9 8 8 7 7 6 5 3 3 4 3 4 4 4 5 6 5 6 5 4 4 2 3 3 4 5 3 3
7 9 10 4 3 4 2 6 6 3 9 12 7 12 16 18 17 15 15 12 10 7 7 8 8 7 6 5 5 6 3 3 2 2 2 3 5 5 5 5 5 4 2 5 4 4 2 3 3
9 3 2 3 2 2 5 2 8 5 5 2 10 13 17 18 20 18 16 14 10 8 7 7 8 7 6 6 6 5 6 3 2 3 5 4 4 5 5 5 4 4 3 4 5 5 5 2 2
2 4 7 5 3 3 5 5 7 3 5 7 3 15 17 19 17 16 14 14 10 7 7 7 7 6 6 6 7 7 6 4 4 4 3 3 3 3 5 5 3 3 4 4 4 4 5 4 3
6 6 5 6 5 6 3 1 9 4 9 6 12 16 16 17 17 18 17 13 11 8 7 7 7 6 6 7 6 6 6 6 5 3 2 4 3 3 5 3 4 3 4 4 5 5 5 5 4
4 7 7 4 3 6 6 5 6 5 8 12 12 14 15 14 15 16 15 13 11 10 7 8 7 7 6 6 6 5 6 3 3 2 2 3 2 3 3 1 4 5 5 5 5 4 4 5 4
3 2 3 5 1 3 4 6 2 8 10 10 12 13 12 13 14 14 12 10 9 7 7 7 8 7 6 5 5 6 5 5 3 3 3 3 3 3 3 2 4 5 5 5 6 4 6 6 4
4 4 3 4 2 4 4 5 4 5 3 7 8 11 12 13 13 12 10 9 8 8 7 7 7 7 5 5 5 5 5 3 3 3 5 5 5 4 4 3 5 5 5 6 6 5 7 6 5
6 5 4 4 4 3 2 6 5 14 9 12 10 11 13 12 12 11 10 9 9 7 7 6 6 7 5 5 5 6 4 4 4 4 5 5 4 5 4 4 5 5 5 7 7 8 7 8 7
6 2 4 5 5 1 3 6 9 9 8 12 12 11 10 10 10 10 10 10 8 7 6 6 5 6 5 5 5 5 4 4 5 5 6 5 5 4 2 4 5 5 7 8 8 9 9 8 9
Wind_Direction
138 153 153 134 52 55 291 23 117 102 27 34 18 125 128 43 122 184 109 124 122 112 102 108 101 88 80 71 64 58 53 46 42 40 39 37 35 33 29 26 22 17 13 13 11 8 6 4 2
123 156 345 74 85 36 285 284 163 160 137 132 90 75 49 93 92 126 119 133 117 116 109 107 101 90 81 74 68 63 55 48 43 38 39 34 33 31 29 23 21 19 13 16 12 11 8 7 4
139 223 80 93 119 183 229 188 140 89 139 185 105 49 88 126 107 139 129 132 116 115 123 117 109 93 84 80 74 68 61 50 44 36 34 34 29 26 29 16 18 17 15 17 14 12 12 11 5
155 5 31 86 243 271 240 182 136 131 152 46 103 64 59 267 149 134 131 127 120 119 130 119 112 96 88 85 84 75 63 47 40 39 33 32 26 25 28 15 18 16 13 17 14 14 13 10 7
29 62 52 358 275 264 238 165 154 139 121 106 98 140 21 33 117 128 132 132 133 136 141 119 119 105 95 90 87 79 64 47 43 38 34 31 26 25 26 18 18 21 13 12 13 16 8 9 5
39 95 56 267 265 245 129 165 158 97 104 149 93 107 148 137 132 139 133 133 134 143 141 129 124 109 101 96 96 86 65 49 46 41 37 28 27 25 24 20 19 19 14 14 11 12 7 6 2
121 89 204 229 271 258 194 158 164 129 138 215 143 108 126 154 148 139 131 127 139 150 128 110 106 119 110 110 92 83 68 54 50 47 43 32 28 28 25 26 21 17 13 11 12 8 7 7 1
118 93 3 246 223 257 177 95 128 129 171 93 147 165 182 173 148 129 129 129 133 125 115 122 115 106 88 42 56 87 73 62 52 52 45 43 34 35 27 34 14 21 16 14 11 9 7 5 3
130 73 217 253 211 210 173 136 55 55 122 89 179 152 162 137 136 127 121 107 120 118 121 129 136 119 104 67 78 83 79 71 63 50 47 39 19 21 19 19 24 19 21 15 12 8 8 6 1
124 149 216 212 195 192 177 149 139 120 125 67 58 70 127 140 149 150 155 149 134 131 138 136 106 135 124 97 90 90 90 77 65 56 41 35 30 34 39 22 26 18 23 15 11 9 9 360 344
182 206 211 248 206 140 138 129 123 125 222 199 181 148 149 154 165 159 155 149 145 135 119 131 119 104 112 123 126 108 94 84 70 61 48 41 36 22 15 9 4 357 8 356 356 353 353 346 345
175 238 196 191 152 119 163 135 167 182 211 167 157 158 156 169 172 163 151 138 140 134 138 136 124 121 131 121 105 117 110 91 80 65 53 49 36 22 18 12 356 2 346 355 349 343 356 353 348
193 218 188 131 135 112 132 197 196 216 40 116 137 156 169 172 168 148 136 132 131 132 136 139 138 133 138 112 112 114 114 105 106 86 59 61 51 37 27 13 0 0 351 2 359 359 3 355 348
208 150 137 128 148 151 126 314 5 162 128 134 150 168 177 175 163 130 142 143 141 141 145 153 141 134 133 120 119 119 127 126 108 106 89 72 75 57 41 26 6 2 354 354 6 358 360 352 346
112 88 19 183 189 180 127 328 237 142 150 152 167 176 180 176 152 158 153 150 148 154 149 147 137 135 124 137 118 129 152 127 123 120 90 81 70 66 56 36 11 353 359 5 13 0 352 355 346
101 54 189 254 142 230 138 255 197 163 154 169 178 187 185 161 161 150 149 142 147 140 144 151 135 112 109 130 137 127 142 134 118 123 100 67 73 77 58 38 19 360 14 16 16 0 358 352 351
3 233 224 304 196 133 182 255 216 167 165 179 189 195 180 146 137 144 144 141 141 136 131 116 113 107 102 83 91 107 122 113 118 167 357 23 50 57 52 32 3 17 17 22 3 347 351 352 348
223 240 267 249 225 179 210 254 179 177 184 194 194 191 164 152 152 143 132 128 126 118 110 111 97 103 100 88 80 71 82 96 103 52 320 6 22 36 35 28 11 25 28 16 356 334 324 306 331
196 202 253 258 239 178 230 242 197 186 209 202 201 190 144 147 138 130 125 122 116 109 116 106 99 84 88 65 59 59 78 89 52 16 350 28 25 37 40 30 16 21 37 16 12 322 328 313 347
267 276 279 285 252 173 16 263 154 188 222 206 194 183 154 139 135 134 129 132 130 127 113 99 93 81 69 74 83 109 120 75 73 35 28 47 59 40 50 36 14 13 14 18 6 358 333 322 11
252 218 255 245 8 348 101 313 207 228 241 190 207 177 158 149 144 142 140 130 127 125 123 113 99 89 78 81 79 65 60 47 33 19 25 20 42 45 43 29 21 6 44 9 326 356 11 334 318
259 226 242 210 101 235 140 274 291 251 247 219 172 159 157 146 140 143 140 134 134 125 114 106 100 95 85 77 73 76 78 82 50 44 39 39 33 37 27 28 24 41 28 13 339 2 336 349 316
227 163 177 140 193 58 323 54 266 338 316 302 203 157 158 148 146 147 140 137 127 126 117 105 99 91 88 78 82 87 83 78 66 43 53 35 25 32 11 27 54 28 11 358 358 349 344 323 295
99 54 37 49 77 6 247 150 294 327 300 314 11 132 142 144 138 129 126 126 119 105 106 112 110 97 89 83 78 86 84 75 60 34 28 359 359 351 19 20 39 9 3 355 341 330 330 314 306
73 59 341 344 2 232 297 35 243 329 345 277 134 140 137 140 135 130 130 129 130 129 127 120 105 99 93 89 81 82 80 78 79 54 12 14 344 351 347 348 7 340 347 356 338 331 322 316 305
172 149 155 229 227 258 317 263 281 54 34 65 100 115 122 124 129 128 131 136 140 141 128 107 104 104 95 88 83 75 76 80 68 51 4 349 349 332 306 346 351 349 354 346 327 319 318 305 303
194 160 179 122 36 43 269 308 108 52 45 74 104 115 113 118 120 127 130 137 130 107 119 120 105 98 97 95 87 72 67 62 54 26 357 343 335 314 314 357 340 344 353 331 325 323 310 301 292
92 157 31 11 271 282 296 303 280 329 165 122 118 109 114 118 126 131 129 111 109 117 98 99 102 110 109 92 78 73 70 58 43 26 5 346 324 318 319 335 338 347 344 321 332 316 299 305 305
14 13 36 114 132 196 331 276 355 288 185 167 127 127 136 140 134 122 105 112 104 96 109 114 108 114 96 85 79 72 48 30 22 15 349 331 316 309 330 337 341 349 336 326 328 320 317 322 319
88 60 110 110 290 107 147 275 343 6 79 113 122 130 119 113 100 107 113 113 119 113 115 106 113 104 104 93 81 69 48 28 18 1 346 324 330 321 318 349 357 346 330 318 318 326 325 328 326